Temperature
19 19 18 18 18 18 18 17 17 17 17 17 17 17 16 16 16 16 16 16 15 15 15 15 15 15 15 15 15 15 15 15 15 15 15 15 14 14 14 14 14 14 15
18 18 18 18 18 17 17 17 17 17 17 17 17 16 16 16 16 15 15 15 15 15 15 15 15 15 15 15 15 15 15 15 15 15 15 15 14 14 14 14 14 14 14
18 18 18 18 17 17 17 17 17 16 16 16 16 16 16 16 15 15 15 15 15 14 14 14 14 14 14 14 14 14 15 15 14 14 14 14 14 14 14 14 14 14 14
18 18 18 17 17 17 17 16 16 16 16 16 16 16 16 16 15 15 15 15 14 14 14 14 14 14 14 14 14 14 14 14 14 14 14 14 14 14 14 14 14 14 14
18 18 17 17 17 17 16 16 16 16 16 16 15 15 15 15 15 15 15 14 14 14 14 14 14 14 14 14 14 14 14 14 14 14 14 14 14 13 14 14 14 14 14
17 17 17 17 16 16 16 16 16 16 15 15 15 15 15 15 15 15 15 14 14 14 14 14 14 14 14 14 14 14 13 13 13 13 14 13 13 13 13 13 13 13 13
17 17 16 16 16 16 16 15 15 15 15 15 15 14 14 14 14 14 14 14 14 14 13 13 14 14 13 13 13 13 13 13 13 13 13 13 13 13 13 13 13 13 13
16 16 16 16 15 15 15 15 15 15 15 15 14 14 14 14 14 14 14 14 13 13 13 13 13 13 13 13 13 13 13 13 13 12 12 12 12 12 12 12 12 13 13
15 15 15 15 15 15 15 15 14 14 14 14 14 14 14 14 14 14 14 13 13 13 13 13 13 13 13 13 13 12 12 12 13 12 12 12 12 12 12 12 12 13 13
15 15 15 15 15 15 14 14 14 14 14 14 13 13 13 13 13 13 13 13 13 13 13 13 13 13 13 13 12 12 12 12 12 12 12 12 12 12 12 12 12 12 13
15 14 14 14 14 14 14 14 13 13 13 13 13 13 13 13 13 13 13 13 12 13 13 13 13 13 12 12 12 12 12 12 12 12 12 12 12 12 12 12 12 12 12
14 14 14 14 14 14 13 13 13 13 13 13 13 13 13 13 13 12 12 12 12 12 12 12 12 12 12 12 12 12 12 12 12 12 12 12 12 12 12 12 11 11 11
14 14 14 13 13 13 13 13 13 13 13 13 13 13 13 12 12 12 12 12 12 12 12 12 12 12 12 12 12 12 11 12 12 12 12 12 12 12 11 11 11 11 11
13 13 13 13 13 13 13 13 13 13 13 13 13 12 12 12 12 12 12 11 11 11 11 11 11 11 11 11 11 11 11 11 11 11 11 11 11 11 11 11 11 11 11
13 13 13 13 13 13 12 12 12 12 12 12 12 12 12 12 11 11 11 11 11 11 11 11 11 11 11 11 11 11 11 11 11 11 11 11 11 11 11 11 11 11 11
13 13 13 13 13 12 12 12 12 12 11 12 11 11 11 11 11 11 11 11 11 11 10 10 11 11 11 11 11 11 11 11 10 10 10 10 11 11 11 11 11 11 11
12 12 12 12 12 12 12 12 12 12 11 11 11 11 11 11 10 10 10 10 10 10 10 10 10 10 10 10 10 11 10 10 10 10 10 10 10 10 10 10 10 10 10
12 12 12 12 12 12 12 12 12 11 11 11 11 10 10 10 10 10 10 10 10 10 10 10 10 10 10 10 10 10 10 10 10 10 10 10 10 10 10 10 10 10 10
12 12 12 12 12 11 11 11 11 11 11 11 11 10 10 10 10 10 10 10 10 10 10 10 10 10 10 10 10 10 9 9 9 10 10 10 10 10 10 10 10 10 10
12 11 11 11 11 11 11 11 11 11 10 11 10 10 10 10 10 10 9 9 9 9 9 9 9 9 9 9 9 9 9 9 9 9 9 9 9 9 9 9 9 9 9
12 11 11 11 11 11 11 11 10 10 10 10 10 10 9 9 9 9 9 9 9 9 9 9 9 9 9 9 9 9 9 9 9 9 9 9 9 9 9 9 9 9 9
11 11 11 11 10 10 10 10 10 10 10 10 9 9 9 9 9 9 9 9 9 8 8 8 8 8 8 8 8 8 8 8 8 8 8 9 8 9 9 9 9 9 9
11 11 11 10 10 10 10 10 10 10 10 9 9 9 9 9 9 9 8 8 8 8 8 8 8 8 8 8 8 8 8 8 8 8 8 8 8 8 8 8 8 8 8
11 10 10 10 10 10 10 10 10 9 9 9 9 9 9 8 8 8 8 8 8 8 8 8 7 7 7 7 7 7 7 7 7 7 7 7 8 8 8 8 8 8 8
10 10 10 10 10 10 9 9 9 9 9 9 8 8 8 8 8 8 8 8 8 7 7 7 7 7 7 7 7 7 7 7 7 7 7 7 7 7 7 7 7 7 7
10 10 10 10 10 9 9 9 9 8 8 8 8 8 8 8 8 8 7 7 7 7 7 7 7 7 7 7 7 7 7 7 7 7 7 7 7 7 7 7 7 7 7
Wind_Speed
2 2 2 2 2 2 1 1 1 1 1 1 1 1 1 1 1 2 2 2 2 2 2 2 2 4 3 3 3 3 3 3 4 4 3 2 2 4 3 4 4 4 4
2 2 2 1 1 1 1 1 1 1 2 1 1 1 1 1 2 2 3 2 2 2 2 2 3 2 3 4 4 4 3 3 5 5 4 4 3 4 4 5 4 4 4
2 2 1 1 1 1 1 1 1 1 1 1 1 1 1 1 2 2 2 2 2 2 2 3 3 3 3 3 4 4 4 4 4 5 5 3 4 3 4 4 4 4 5
1 1 1 0 1 1 1 1 1 0 1 1 1 1 2 1 1 1 2 2 3 3 3 3 3 4 4 4 4 4 4 4 4 5 5 4 4 3 4 4 4 3 4
1 1 1 1 1 1 1 1 1 0 1 1 1 2 2 2 1 1 2 2 2 3 3 3 3 3 4 4 5 4 4 4 5 5 5 5 4 4 4 4 5 5 4
2 2 2 2 1 1 2 1 0 1 1 1 2 2 2 1 2 2 3 3 3 3 3 3 3 2 2 2 3 4 5 5 6 6 6 6 6 6 5 5 5 5 5
2 3 3 2 2 2 2 2 1 1 1 2 2 2 1 0 2 1 3 4 4 4 4 4 4 3 3 4 3 5 5 6 7 7 7 7 7 6 6 6 5 6 6
2 3 3 3 3 2 2 2 2 2 2 1 2 1 2 1 1 1 3 4 4 4 4 4 5 5 4 4 5 5 6 5 6 6 7 8 8 7 7 8 8 7 7
3 3 3 1 1 1 1 2 2 2 2 2 2 2 2 2 0 2 4 4 3 4 4 5 5 5 3 4 5 6 7 6 5 5 6 7 7 8 7 6 6 6 6
3 2 2 1 1 1 1 2 2 2 2 2 2 2 3 3 1 2 4 4 4 4 4 4 3 4 4 5 6 6 7 7 7 6 6 7 8 7 8 7 7 6 6
2 2 2 2 1 1 1 1 2 2 2 2 2 2 2 3 1 1 3 4 4 5 4 4 3 1 3 5 6 6 7 8 7 7 6 6 6 5 5 5 5 6 6
1 1 2 1 1 1 1 1 1 2 2 2 2 3 2 2 2 1 2 4 6 5 5 5 3 1 4 6 6 6 8 8 6 6 6 6 5 5 4 4 5 5 6
1 1 1 1 2 2 1 1 2 2 3 3 3 3 3 2 1 2 3 5 6 5 4 4 5 5 5 5 6 7 7 6 6 6 6 6 5 5 5 4 5 5 5
1 1 1 1 1 2 2 2 2 3 3 3 3 4 3 3 3 3 3 3 4 4 5 4 5 6 6 6 5 4 4 5 5 6 6 6 5 4 4 4 4 4 4
1 1 1 1 1 2 2 2 2 3 3 3 4 4 4 4 4 6 5 5 5 5 5 4 4 4 4 4 4 4 4 4 4 5 5 5 5 5 4 4 4 4 4
1 1 2 1 1 2 2 2 3 2 1 1 3 4 3 3 4 5 6 6 6 6 5 4 4 4 4 5 5 4 4 4 5 5 5 5 5 5 5 4 3 4 4
1 2 2 2 2 2 2 2 3 2 1 3 3 2 3 4 5 5 6 6 6 4 4 4 4 4 5 5 5 5 5 5 5 5 5 5 5 5 5 4 4 4 4
2 1 2 2 3 3 3 3 3 3 3 3 2 4 4 4 6 6 6 5 3 3 3 4 4 4 4 5 5 5 5 5 4 5 5 4 4 4 4 4 4 4 4
2 2 2 3 3 3 3 4 3 3 4 3 3 1 3 4 5 5 5 3 4 3 3 4 4 4 4 4 4 5 5 5 5 5 5 4 4 4 4 5 4 3 4
2 2 3 3 3 3 3 3 4 4 4 4 4 4 3 4 4 3 2 3 4 4 4 4 4 4 5 5 5 4 4 4 5 5 5 4 4 4 5 5 5 4 4
2 1 2 4 3 3 4 4 4 4 4 4 5 4 5 5 4 4 4 3 3 4 4 4 4 4 4 4 4 5 5 5 5 5 5 5 5 5 5 4 4 4 3
2 2 2 3 3 3 4 4 4 4 4 4 4 3 1 4 4 4 4 3 3 3 4 4 4 4 4 4 4 5 5 5 5 5 5 5 5 5 5 5 4 3 3
3 3 2 3 3 3 4 4 4 4 4 4 4 4 3 4 5 4 5 5 4 4 4 4 4 4 5 4 4 5 5 5 5 6 6 6 5 5 5 4 4 4 3
2 2 3 2 2 3 4 4 4 4 4 4 4 4 4 4 5 5 5 5 4 4 4 4 4 5 6 5 5 5 6 7 7 5 6 6 6 6 5 4 3 3 3
2 2 2 3 3 3 3 3 4 4 4 4 4 4 4 4 4 5 4 4 5 4 4 4 4 4 6 6 6 6 8 8 8 7 5 5 5 5 5 4 3 3 3
2 2 3 3 3 3 3 3 3 4 4 4 4 4 5 5 4 4 4 4 5 4 4 4 5 5 6 5 6 7 6 7 7 8 6 4 5 4 4 3 4 3 3
Wind_Direction
187 195 213 214 204 214 233 251 248 247 232 237 241 270 294 302 297 291 299 298 290 305 307 312 312 313 306 303 298 291 287 285 285 293 294 305 290 293 296 288 279 269 237
191 201 205 213 234 234 228 261 258 235 228 220 222 236 268 284 289 287 293 295 294 306 312 312 309 302 301 303 304 298 294 284 279 286 290 293 289 284 291 280 278 271 271
178 187 191 218 250 269 288 292 278 247 225 216 211 230 253 275 287 285 284 275 284 298 307 305 303 305 305 310 305 306 298 289 280 280 287 298 295 300 296 286 282 280 272
119 134 120 92 313 318 342 319 295 262 240 229 223 235 247 254 267 282 281 280 286 291 293 292 299 303 305 307 303 303 302 296 284 277 282 286 296 304 293 289 293 290 287
107 89 65 40 36 24 21 17 25 336 279 265 254 252 254 244 263 264 264 268 276 282 286 293 304 323 335 321 316 319 313 300 294 288 285 285 293 308 302 297 293 294 293
89 77 60 43 39 27 9 14 331 291 294 287 280 266 259 261 69 23 297 276 273 275 281 287 289 286 289 260 288 302 304 294 298 295 290 294 293 293 301 295 295 298 302
81 63 48 27 18 13 357 357 334 297 281 268 266 260 257 310 73 19 305 281 281 284 285 287 292 304 293 294 261 240 258 258 264 277 286 291 293 300 300 292 294 293 292
69 61 44 23 11 5 352 341 320 302 283 268 259 259 259 258 128 260 284 266 274 283 288 286 289 298 303 306 296 290 284 277 265 263 272 279 287 297 290 281 280 275 273
49 41 34 24 19 359 340 322 313 309 293 282 276 275 272 277 269 272 278 264 266 278 286 290 287 288 337 319 291 289 290 286 265 251 258 264 275 278 278 283 285 280 285
44 35 32 31 36 2 321 303 308 298 286 283 298 293 284 284 283 290 287 276 280 286 287 288 298 302 324 314 292 291 291 295 298 289 266 253 257 252 232 248 272 278 287
54 29 22 30 17 343 330 311 301 298 308 296 293 288 289 295 274 266 289 289 292 289 290 290 301 19 301 297 290 287 291 293 290 288 285 280 270 263 253 245 257 272 278
50 32 19 5 338 23 7 333 319 304 288 279 282 288 290 291 296 247 250 275 293 289 290 294 308 318 284 281 285 289 285 284 284 287 287 286 284 278 275 272 270 271 272
42 26 8 357 347 354 351 348 322 308 307 315 309 312 322 326 318 196 231 253 267 274 290 309 304 276 268 266 262 271 275 281 286 286 287 291 292 294 287 273 262 256 259
35 8 350 345 354 5 340 342 336 328 319 320 321 322 321 326 333 331 308 283 251 261 282 270 251 254 263 282 289 275 281 291 293 295 298 297 302 300 286 282 279 274 278
2 355 338 347 359 341 336 342 322 339 334 312 316 318 318 319 347 350 326 317 315 317 302 287 287 292 293 293 299 305 300 301 299 295 296 300 300 295 289 286 287 283 288
332 325 325 329 343 322 325 336 15 340 15 284 310 308 328 351 342 333 326 322 316 313 300 290 292 294 299 302 304 308 305 302 302 296 293 299 302 299 295 291 284 284 287
323 324 321 324 321 304 302 303 312 321 248 228 241 269 280 300 302 298 293 294 288 280 276 286 298 304 306 307 308 310 312 311 305 301 298 301 301 298 296 298 296 293 295
308 334 310 306 302 299 299 298 298 301 305 309 251 210 232 257 271 275 271 268 277 264 282 291 299 301 300 303 306 310 315 317 311 306 299 297 299 300 302 306 304 308 308
317 325 322 314 299 301 302 298 298 303 305 305 313 294 222 245 250 261 254 279 301 304 301 301 303 305 308 311 313 315 319 316 315 313 311 307 305 307 310 310 307 305 296
330 8 322 306 302 304 305 309 311 312 309 313 322 329 328 314 311 307 280 295 306 313 315 311 308 308 309 315 318 318 316 314 316 314 315 317 313 309 309 310 313 309 303
310 321 273 295 313 321 320 317 318 316 318 322 317 337 333 307 309 311 309 310 310 315 316 314 312 308 309 314 319 320 317 316 318 320 317 318 315 308 307 306 305 304 310
303 308 310 318 322 322 323 317 307 305 312 314 317 328 293 298 317 322 317 314 313 313 314 313 314 320 322 320 322 319 318 321 322 322 322 318 313 308 306 306 309 311 309
299 305 310 321 321 320 298 298 306 310 315 318 319 327 323 323 333 331 324 326 326 321 322 321 320 326 327 327 330 328 319 320 320 321 319 316 312 308 303 306 312 311 311
296 297 300 301 296 295 297 304 308 312 314 316 321 326 327 329 327 328 324 322 329 330 332 332 329 331 333 333 335 334 331 332 323 313 311 306 303 302 302 302 302 302 297
294 291 285 285 284 287 297 305 312 319 318 317 318 319 319 322 322 323 325 329 329 332 334 332 331 334 338 339 344 344 351 344 330 319 305 298 299 304 307 301 297 296 294
298 291 287 287 287 296 305 310 314 321 321 318 320 320 319 320 324 330 329 330 333 331 326 324 332 334 332 330 349 351 345 333 323 311 298 291 297 305 308 298 295 289 287
Height
1513 1513 1513 1513 1513 1513 1513 1512 1512 1512 1511 1511 1511 1511 1510 1510 1509 1509 1509 1508 1507 1506 1506 1506 1505 1504 1504 1503 1502 1501 1501 1500 1499 1498 1497 1496 1494 1493 1491 1490 1489 1488 1487
1512 1512 1512 1512 1512 1511 1511 1510 1510 1510 1510 1509 1509 1509 1509 1508 1508 1508 1507 1507 1506 1505 1504 1504 1503 1503 1501 1501 1500 1499 1498 1497 1497 1496 1495 1494 1492 1490 1489 1487 1487 1486 1484
1511 1511 1510 1510 1510 1510 1509 1508 1508 1508 1508 1507 1507 1507 1506 1506 1506 1506 1506 1505 1504 1503 1503 1502 1501 1500 1499 1499 1497 1497 1496 1495 1494 1493 1492 1491 1490 1488 1486 1485 1484 1482 1482
1509 1509 1509 1508 1508 1508 1507 1507 1506 1506 1506 1505 1505 1505 1504 1504 1503 1503 1503 1503 1502 1501 1500 1500 1499 1498 1497 1496 1495 1494 1494 1493 1492 1491 1489 1488 1487 1485 1484 1483 1481 1480 1479
1508 1507 1507 1507 1506 1506 1505 1505 1505 1504 1504 1503 1503 1503 1502 1502 1501 1501 1501 1500 1500 1499 1498 1498 1497 1496 1494 1494 1493 1492 1491 1490 1490 1488 1487 1486 1485 1483 1482 1481 1479 1478 1476
1506 1506 1505 1505 1504 1504 1504 1503 1503 1503 1502 1502 1501 1500 1500 1500 1499 1499 1498 1498 1498 1497 1496 1495 1495 1493 1492 1491 1490 1489 1489 1488 1487 1486 1485 1483 1482 1481 1479 1478 1477 1475 1474
1505 1505 1504 1504 1504 1503 1503 1502 1501 1501 1500 1499 1499 1498 1498 1498 1497 1497 1496 1496 1495 1494 1494 1493 1493 1492 1490 1489 1488 1487 1486 1485 1484 1483 1482 1480 1479 1478 1477 1475 1474 1472 1471
1504 1504 1503 1503 1503 1502 1501 1501 1500 1499 1498 1497 1497 1496 1496 1495 1495 1494 1494 1493 1493 1492 1491 1490 1490 1489 1488 1486 1486 1484 1483 1482 1481 1479 1478 1477 1476 1475 1473 1472 1471 1469 1468
1504 1503 1503 1502 1502 1501 1500 1499 1498 1497 1496 1495 1495 1494 1494 1493 1493 1492 1491 1491 1490 1489 1489 1488 1487 1486 1485 1484 1483 1481 1480 1479 1478 1476 1474 1473 1472 1471 1470 1469 1468 1466 1464
1503 1503 1502 1501 1500 1500 1499 1498 1497 1496 1495 1494 1493 1492 1492 1491 1491 1490 1489 1489 1488 1487 1486 1485 1484 1483 1482 1481 1479 1478 1477 1476 1475 1473 1471 1470 1469 1467 1466 1465 1464 1463 1461
1502 1502 1501 1500 1499 1498 1497 1496 1495 1495 1494 1492 1491 1491 1490 1489 1488 1487 1486 1486 1485 1485 1484 1483 1482 1480 1479 1478 1476 1475 1474 1472 1471 1470 1468 1467 1465 1464 1462 1461 1460 1460 1459
1501 1500 1500 1499 1498 1497 1496 1495 1494 1493 1492 1491 1490 1489 1488 1487 1486 1485 1484 1483 1482 1482 1481 1481 1479 1478 1476 1475 1474 1472 1471 1469 1468 1467 1465 1463 1462 1461 1459 1458 1457 1456 1455
1500 1499 1498 1497 1497 1496 1495 1494 1493 1492 1491 1490 1489 1488 1487 1486 1484 1482 1481 1480 1479 1478 1478 1477 1476 1475 1473 1472 1471 1469 1468 1467 1465 1463 1462 1460 1459 1457 1456 1454 1453 1452 1451
1498 1498 1497 1496 1495 1494 1493 1493 1492 1491 1490 1489 1488 1486 1485 1484 1482 1480 1479 1478 1477 1476 1475 1474 1473 1472 1471 1470 1468 1467 1466 1464 1463 1461 1459 1457 1455 1454 1452 1451 1450 1450 1449
1497 1496 1496 1495 1494 1493 1492 1491 1490 1489 1488 1487 1485 1484 1483 1481 1480 1478 1477 1476 1475 1473 1472 1472 1471 1470 1468 1467 1466 1465 1463 1462 1460 1458 1457 1455 1453 1452 1450 1449 1448 1447 1446
1495 1495 1494 1494 1493 1492 1490 1489 1488 1487 1486 1484 1483 1482 1480 1478 1477 1475 1474 1473 1471 1470 1469 1469 1468 1467 1466 1465 1464 1462 1461 1459 1458 1456 1454 1453 1451 1449 1448 1447 1445 1444 1444
1494 1493 1493 1492 1491 1490 1489 1488 1486 1485 1484 1482 1480 1479 1477 1476 1474 1473 1471 1470 1469 1468 1467 1466 1466 1465 1464 1463 1462 1460 1459 1457 1455 1454 1452 1450 1449 1447 1446 1444 1443 1443 1441
1493 1492 1492 1491 1490 1489 1487 1486 1485 1483 1481 1480 1479 1477 1475 1473 1472 1470 1469 1468 1467 1466 1465 1465 1464 1463 1462 1460 1459 1458 1457 1455 1453 1452 1450 1449 1447 1446 1444 1443 1441 1440 1440
1492 1491 1490 1489 1488 1487 1486 1484 1483 1481 1479 1478 1476 1475 1473 1471 1470 1468 1467 1466 1465 1464 1464 1463 1462 1461 1460 1458 1457 1456 1454 1453 1451 1450 1449 1447 1446 1445 1443 1442 1440 1439 1438
1490 1489 1488 1488 1486 1485 1484 1483 1481 1480 1478 1476 1475 1473 1471 1470 1468 1467 1465 1464 1463 1463 1462 1461 1460 1459 1457 1456 1455 1453 1452 1451 1449 1448 1447 1446 1444 1443 1442 1440 1439 1438 1436
1489 1488 1487 1486 1485 1484 1482 1481 1480 1478 1477 1475 1473 1471 1469 1468 1467 1466 1464 1463 1462 1461 1460 1459 1457 1456 1455 1454 1452 1451 1450 1449 1447 1446 1445 1444 1443 1441 1440 1439 1437 1436 1435
1488 1486 1485 1485 1483 1482 1481 1480 1478 1477 1475 1473 1472 1470 1468 1466 1465 1464 1462 1461 1460 1459 1458 1457 1455 1454 1453 1452 1450 1449 1448 1446 1445 1444 1443 1442 1441 1439 1438 1437 1436 1435 1434
1486 1485 1484 1483 1482 1480 1479 1479 1477 1475 1473 1472 1470 1469 1467 1465 1463 1462 1461 1460 1458 1457 1456 1455 1453 1452 1450 1449 1448 1447 1446 1444 1443 1441 1440 1439 1438 1437 1436 1435 1434 1433 1432
1484 1484 1483 1481 1480 1479 1478 1477 1475 1474 1472 1470 1468 1467 1465 1463 1462 1460 1459 1458 1456 1455 1453 1452 1451 1449 1448 1446 1445 1444 1443 1442 1440 1439 1438 1436 1435 1435 1434 1433 1432 1431 1430
1483 1482 1481 1480 1479 1478 1477 1475 1473 1472 1470 1468 1467 1465 1463 1462 1460 1458 1457 1455 1454 1453 1451 1450 1448 1447 1445 1444 1443 1442 1440 1439 1438 1436 1435 1434 1433 1432 1431 1430 1429 1428 1428
1481 1480 1480 1478 1477 1476 1475 1473 1472 1470 1468 1466 1465 1463 1462 1460 1458 1457 1455 1453 1452 1451 1449 1447 1446 1445 1443 1442 1440 1439 1437 1436 1435 1433 1432 1432 1431 1429 1428 1428 1427 1426 1425